Wind_Speed
11 11 11 11 11 11 11 11 11 10 9 9 10 10 10 10 9 9 9 9 9 9 9 9 10 9 9 10 10 10 10 10 10 11 11 12 12 12 12 12 13 13 13
12 12 12 12 12 12 11 11 11 11 10 10 10 10 10 10 10 9 9 9 9 9 10 10 10 10 10 10 10 10 10 10 11 11 12 11 12 12 12 13 13 14 13
13 13 14 13 12 12 11 11 11 11 11 10 10 10 11 10 10 10 10 10 10 10 10 10 10 10 10 11 11 11 11 12 12 12 12 12 12 11 12 13 13 14 14
13 14 13 12 12 12 12 11 11 11 11 11 11 11 11 11 11 11 11 11 10 10 10 10 10 10 10 11 11 11 11 12 12 12 12 12 12 12 12 12 13 13 14
13 13 13 13 12 12 12 12 12 11 11 11 11 11 11 11 11 11 11 11 11 11 11 11 11 10 11 11 11 11 11 12 12 12 11 11 12 12 12 12 13 13 13
13 13 13 13 13 13 13 13 13 12 12 12 12 12 12 12 12 12 12 12 12 12 12 12 12 12 11 11 11 11 12 12 12 12 12 12 12 12 12 12 13 13 14
14 13 14 14 14 13 14 14 14 13 12 13 13 13 13 13 12 13 13 13 13 13 12 12 12 12 12 12 12 12 12 12 12 12 12 12 12 12 12 13 13 14 15
15 14 14 15 14 14 14 14 15 14 13 13 13 13 14 14 14 14 14 14 14 14 13 13 13 13 13 12 12 12 13 13 13 12 12 12 12 11 12 12 13 14 14
15 15 15 15 14 14 14 15 15 14 14 13 13 14 14 14 14 15 14 14 14 15 14 14 13 13 14 13 13 13 13 13 13 12 12 12 12 12 12 13 13 14 15
16 15 15 15 15 15 15 15 15 15 15 14 15 15 15 15 15 16 16 15 15 15 15 15 15 14 14 14 14 14 14 14 14 14 14 13 13 13 13 13 14 14 15
15 15 15 15 16 15 15 15 16 16 16 16 16 16 16 16 16 16 15 16 16 16 16 15 15 15 15 16 16 16 15 15 15 15 15 15 15 14 14 15 15 15 15
17 17 16 16 16 16 16 16 17 17 17 17 17 18 17 17 17 17 16 16 16 16 16 16 16 16 17 17 17 17 16 16 16 16 16 15 15 16 16 16 16 16 16
19 18 18 18 17 17 18 17 17 17 18 18 18 18 18 17 17 17 17 17 16 17 17 17 17 18 18 18 18 17 17 17 17 17 17 16 16 16 17 17 17 16 16
20 19 19 18 18 18 19 18 18 18 18 19 19 19 19 18 18 18 18 18 18 18 18 18 18 18 19 19 18 18 18 18 17 17 17 17 17 16 17 17 17 17 17
21 20 20 20 19 19 19 19 20 19 20 20 20 20 19 19 19 19 20 20 20 19 19 19 19 19 19 19 19 20 19 19 19 18 17 17 17 17 17 17 18 19 19
23 22 22 21 20 20 21 21 21 21 21 21 21 21 21 21 21 21 21 22 21 21 20 21 21 21 21 21 21 21 21 20 19 19 18 18 18 18 19 19 20 20 20
24 24 24 23 22 22 22 22 22 21 21 22 22 22 22 22 22 23 23 23 23 22 22 22 22 23 22 22 22 22 22 21 21 20 19 19 20 20 20 21 20 20 20
25 25 25 24 24 24 24 24 24 23 22 23 23 23 23 24 24 24 24 24 24 24 23 23 23 23 23 23 23 22 22 22 22 22 21 21 21 22 22 22 21 21 21
27 27 27 26 26 26 26 26 25 25 24 24 25 25 24 25 25 25 25 25 25 25 25 25 24 24 24 23 23 23 23 23 23 23 23 23 23 23 22 22 22 23 23
29 28 29 28 28 28 28 28 27 27 26 26 26 26 26 26 26 26 26 26 26 26 25 25 25 25 25 24 24 24 24 24 24 24 24 23 23 23 23 24 24 25 25
31 30 29 29 30 29 29 28 27 27 27 27 27 27 28 27 27 27 27 27 27 26 26 26 26 25 25 25 25 25 25 25 25 25 25 25 25 25 25 25 25 25 25
31 31 31 31 30 30 29 29 28 28 28 28 28 28 28 28 28 28 28 28 29 28 27 27 27 27 26 26 26 26 27 26 26 26 27 27 27 27 27 27 26 26 25
31 33 32 32 32 32 31 31 30 30 30 29 29 29 29 29 29 29 29 29 29 29 29 28 27 27 27 27 27 27 28 28 29 29 28 28 28 28 27 27 26 25 25
32 33 33 33 32 31 31 31 31 31 31 30 30 30 30 30 30 31 31 30 29 29 30 29 29 29 29 29 28 27 28 29 29 29 29 29 28 27 26 26 27 26 26
33 34 34 34 33 33 32 32 32 31 31 31 31 31 31 31 31 31 32 31 30 30 30 30 30 29 29 29 29 29 29 29 29 29 29 29 28 27 27 27 27 27 26
33 33 33 33 33 32 31 32 32 31 31 31 31 31 32 32 33 33 32 31 31 31 31 31 30 30 29 30 30 30 31 31 30 29 29 29 28 28 27 27 28 28 27
Wind_Direction
283 282 279 278 280 281 283 283 280 276 276 276 274 274 273 273 272 271 269 270 272 274 276 280 284 286 288 290 291 291 290 289 286 282 278 277 276 271 267 263 263 260 259
281 283 283 281 280 280 280 279 276 275 275 272 271 271 270 272 273 274 270 272 275 277 279 282 284 285 285 288 290 289 287 287 290 288 282 279 276 272 268 265 265 261 263
282 283 282 282 281 279 278 276 275 276 275 272 268 268 268 269 270 272 275 276 276 277 279 282 285 285 285 287 289 288 287 287 289 289 286 285 279 278 274 268 269 263 265
279 283 282 281 280 279 279 278 275 275 274 271 268 266 267 269 270 273 275 275 273 277 280 281 281 279 283 286 288 288 290 289 289 287 285 285 285 279 278 273 271 266 266
277 279 279 280 281 279 280 279 276 274 274 272 269 266 268 270 270 272 274 275 274 276 278 279 277 275 277 281 285 287 289 290 290 287 283 282 283 284 282 278 274 268 267
276 276 277 279 279 278 278 276 275 275 274 273 270 267 268 269 269 271 274 275 275 277 277 277 278 278 279 279 283 286 288 291 290 286 282 281 282 280 280 279 274 269 267
279 277 276 277 277 276 275 274 274 273 272 271 268 267 267 267 267 269 273 273 273 275 279 280 282 282 282 283 285 289 290 291 290 287 285 284 282 283 281 278 277 275 272
282 281 280 278 276 274 273 273 274 270 269 268 265 264 264 265 265 266 271 273 274 276 278 281 282 283 286 286 287 289 291 294 293 291 288 285 283 282 280 276 277 274 272
279 278 276 275 274 274 274 275 274 270 268 267 266 265 265 266 267 268 270 270 271 273 275 277 280 283 285 286 287 290 291 293 293 291 289 286 283 282 280 278 276 275 273
275 277 275 273 273 272 272 273 270 269 268 268 268 268 269 268 267 267 268 268 268 269 271 275 278 281 282 283 284 285 287 288 289 288 289 288 287 286 282 280 278 277 276
276 278 278 276 275 274 273 272 272 269 268 269 269 268 269 271 269 267 269 270 270 270 271 273 276 276 279 281 283 282 282 284 285 285 286 285 285 284 280 279 279 278 276
274 276 275 276 275 275 273 272 270 269 270 271 272 272 272 273 272 273 272 273 274 274 274 275 276 277 276 279 281 280 281 281 283 284 284 283 280 277 275 278 279 277 275
271 274 275 273 273 273 272 272 273 271 271 272 272 273 275 275 274 275 274 274 275 275 276 277 278 277 276 278 279 280 282 281 282 281 282 281 277 274 272 274 277 279 278
271 271 272 273 272 271 271 271 273 272 271 271 272 272 274 275 275 275 273 273 273 273 275 276 276 276 275 276 278 279 281 281 280 281 281 280 276 275 275 276 277 279 280
269 270 271 271 270 270 271 270 270 271 270 272 272 273 274 274 274 274 272 272 273 274 275 275 274 276 275 275 276 277 278 279 278 278 279 280 277 277 278 279 279 278 280
268 270 271 269 267 267 269 270 271 271 271 271 272 273 274 274 274 273 272 272 274 274 275 275 275 277 276 275 274 274 274 275 274 275 275 274 274 274 275 278 279 279 280
267 267 269 267 267 267 268 268 269 272 272 272 271 272 275 276 276 276 275 273 273 273 273 273 273 275 277 277 275 274 275 274 273 273 272 271 273 274 275 277 278 279 279
269 267 266 265 265 266 268 268 269 271 272 272 272 272 275 276 277 277 277 275 274 272 272 273 273 273 274 274 273 273 275 275 273 272 273 272 274 275 276 278 279 280 279
269 268 266 266 266 267 268 268 268 268 270 270 271 272 273 274 276 277 278 277 275 273 272 272 271 272 272 272 273 273 274 274 273 272 273 273 274 275 276 277 278 279 279
269 269 266 267 267 267 267 267 267 266 268 270 271 272 273 274 276 276 276 276 275 274 273 272 272 272 272 272 271 273 273 273 273 271 272 273 274 274 274 276 278 278 277
270 269 268 268 267 266 266 267 267 266 268 270 271 272 273 273 275 274 275 274 274 274 275 274 275 273 273 273 272 271 271 272 271 271 272 272 272 273 274 276 278 280 278
271 270 269 269 268 268 267 267 266 265 266 268 270 271 271 272 273 273 272 272 273 274 275 275 275 274 272 272 272 271 272 272 271 271 272 272 272 274 275 276 278 279 278
272 272 272 271 269 267 266 266 264 264 265 266 268 270 270 271 271 271 269 270 272 273 273 274 275 274 272 272 272 271 271 271 271 270 270 272 273 274 275 277 277 277 278
271 272 273 272 270 267 266 266 265 264 265 266 267 269 270 270 270 270 269 269 270 272 271 272 273 273 272 272 272 271 271 271 272 271 271 272 272 271 272 274 276 277 278
271 270 270 271 269 268 266 265 265 265 265 266 267 269 270 269 269 270 269 269 270 271 271 273 273 273 273 273 272 272 273 273 272 272 272 273 272 270 270 271 272 274 275
271 269 269 269 267 267 267 266 264 265 265 265 266 269 270 269 269 270 270 270 270 271 272 273 272 272 273 273 272 272 272 272 272 272 272 272 271 270 271 271 272 272 273
Height
5862 5861 5861 5860 5860 5860 5859 5859 5858 5858 5857 5857 5857 5856 5856 5855 5855 5855 5854 5854 5854 5853 5853 5852 5852 5851 5850 5849 5849 5848 5847 5846 5845 5844 5844 5843 5842 5842 5841 5841 5841 5841 5840
5859 5858 5858 5858 5857 5857 5857 5856 5856 5855 5855 5855 5854 5854 5853 5853 5853 5852 5852 5852 5852 5851 5851 5850 5849 5848 5848 5847 5846 5845 5844 5844 5843 5842 5841 5840 5839 5838 5838 5838 5837 5837 5837
5855 5855 5855 5854 5854 5854 5854 5853 5853 5852 5852 5852 5852 5851 5851 5851 5850 5850 5850 5850 5849 5849 5848 5848 5847 5846 5845 5844 5843 5843 5842 5841 5840 5839 5838 5837 5836 5836 5835 5835 5834 5834 5834
5852 5852 5852 5851 5851 5851 5851 5850 5850 5850 5849 5849 5849 5849 5849 5848 5848 5848 5847 5847 5846 5846 5846 5845 5844 5843 5842 5841 5840 5840 5839 5838 5837 5836 5835 5834 5833 5833 5832 5831 5831 5831 5830
5849 5849 5849 5848 5848 5848 5848 5847 5847 5847 5847 5846 5846 5846 5846 5846 5845 5845 5845 5844 5844 5843 5843 5842 5841 5840 5839 5839 5838 5837 5836 5835 5834 5833 5832 5831 5830 5829 5829 5828 5827 5827 5826
5846 5846 5845 5845 5845 5845 5844 5844 5844 5844 5844 5843 5843 5843 5843 5843 5843 5842 5842 5841 5841 5840 5840 5839 5838 5837 5836 5835 5835 5834 5833 5832 5831 5830 5829 5828 5827 5826 5825 5825 5824 5824 5823
5842 5842 5842 5841 5841 5841 5841 5840 5840 5840 5840 5840 5840 5840 5840 5839 5839 5839 5838 5838 5838 5837 5837 5836 5835 5834 5833 5832 5832 5831 5830 5829 5828 5827 5826 5824 5823 5822 5822 5821 5820 5820 5819
5838 5838 5837 5837 5837 5837 5837 5837 5836 5836 5836 5836 5836 5836 5836 5836 5836 5835 5835 5835 5834 5834 5833 5833 5832 5831 5830 5829 5828 5827 5826 5825 5824 5823 5822 5821 5820 5819 5818 5817 5817 5816 5815
5834 5834 5834 5833 5833 5833 5833 5833 5833 5833 5833 5833 5832 5833 5832 5832 5832 5832 5831 5831 5830 5830 5830 5829 5828 5828 5827 5826 5825 5824 5823 5822 5821 5820 5818 5818 5817 5816 5815 5814 5813 5812 5811
5831 5830 5830 5829 5829 5829 5829 5829 5829 5829 5829 5829 5829 5828 5828 5828 5828 5828 5827 5827 5826 5826 5825 5825 5825 5824 5823 5822 5822 5821 5819 5818 5817 5816 5815 5814 5813 5812 5811 5810 5809 5808 5807
5826 5826 5826 5825 5825 5825 5825 5825 5824 5825 5825 5825 5825 5824 5824 5824 5823 5823 5823 5822 5822 5821 5821 5821 5820 5820 5819 5818 5817 5816 5815 5814 5813 5812 5811 5810 5809 5808 5807 5806 5805 5804 5803
5822 5821 5821 5821 5821 5820 5820 5820 5820 5820 5820 5820 5820 5820 5819 5819 5819 5818 5818 5818 5817 5817 5817 5816 5816 5815 5814 5814 5813 5812 5811 5810 5808 5808 5806 5805 5804 5803 5803 5802 5801 5800 5799
5817 5816 5816 5816 5816 5815 5815 5815 5815 5815 5815 5815 5815 5815 5814 5814 5814 5814 5813 5813 5813 5812 5812 5812 5811 5810 5809 5809 5808 5807 5806 5805 5804 5802 5801 5800 5799 5799 5798 5797 5796 5795 5794
5811 5811 5811 5810 5810 5810 5810 5810 5810 5809 5809 5809 5809 5809 5809 5809 5808 5808 5808 5808 5808 5808 5807 5807 5806 5805 5804 5803 5803 5802 5801 5800 5799 5797 5796 5795 5794 5794 5793 5792 5791 5790 5789
5805 5805 5805 5805 5805 5805 5805 5805 5804 5804 5804 5804 5803 5803 5803 5803 5803 5802 5802 5802 5802 5802 5802 5801 5800 5800 5799 5798 5797 5796 5795 5794 5793 5792 5791 5790 5789 5788 5788 5787 5786 5785 5784
5798 5799 5799 5799 5799 5799 5799 5799 5798 5798 5798 5798 5797 5797 5797 5797 5796 5796 5796 5796 5796 5795 5795 5795 5794 5793 5792 5792 5791 5790 5789 5788 5788 5787 5786 5785 5784 5783 5782 5781 5780 5779 5778
5791 5792 5792 5792 5792 5792 5792 5792 5792 5792 5791 5791 5791 5791 5790 5790 5790 5789 5789 5789 5789 5788 5788 5788 5787 5786 5786 5785 5784 5784 5783 5782 5782 5781 5780 5779 5778 5777 5776 5775 5774 5772 5771
5784 5785 5785 5785 5785 5785 5785 5785 5785 5785 5785 5785 5784 5784 5784 5783 5783 5783 5782 5782 5781 5781 5780 5780 5780 5779 5778 5778 5777 5777 5776 5775 5775 5774 5773 5772 5771 5770 5769 5768 5767 5766 5764
5777 5777 5777 5777 5777 5777 5777 5777 5777 5777 5777 5777 5777 5777 5777 5776 5776 5775 5775 5774 5773 5773 5773 5772 5772 5771 5771 5771 5770 5770 5769 5768 5767 5766 5765 5764 5763 5762 5761 5761 5760 5758 5757
5769 5768 5768 5768 5768 5769 5769 5769 5769 5769 5769 5769 5769 5769 5769 5768 5768 5767 5767 5766 5766 5765 5765 5764 5764 5764 5763 5763 5763 5762 5762 5761 5760 5759 5758 5757 5756 5755 5754 5753 5752 5751 5750
5760 5760 5760 5759 5759 5759 5760 5760 5761 5761 5761 5761 5761 5761 5760 5760 5759 5759 5759 5758 5758 5757 5757 5756 5756 5756 5755 5755 5755 5754 5753 5752 5752 5751 5750 5749 5748 5748 5747 5745 5744 5743 5742
5751 5751 5751 5750 5750 5750 5750 5751 5752 5752 5752 5752 5752 5752 5752 5751 5751 5750 5750 5750 5749 5749 5749 5748 5748 5747 5747 5747 5746 5745 5744 5744 5744 5744 5742 5741 5740 5739 5738 5738 5736 5735 5734
5741 5741 5741 5741 5741 5741 5741 5742 5742 5743 5743 5743 5743 5743 5743 5742 5742 5741 5741 5741 5741 5740 5740 5740 5740 5739 5738 5738 5738 5737 5736 5735 5735 5734 5733 5732 5731 5731 5730 5729 5728 5727 5726
5731 5731 5731 5731 5731 5731 5731 5732 5732 5733 5733 5733 5733 5733 5733 5733 5733 5732 5732 5732 5732 5731 5731 5731 5731 5730 5730 5729 5729 5728 5727 5726 5726 5725 5724 5723 5722 5722 5721 5721 5720 5719 5718
5721 5721 5721 5721 5721 5721 5721 5722 5722 5723 5723 5723 5724 5723 5723 5723 5723 5722 5722 5722 5723 5722 5722 5721 5721 5721 5720 5720 5719 5719 5718 5717 5717 5716 5715 5714 5714 5713 5713 5712 5712 5710 5710
5711 5710 5710 5710 5710 5711 5711 5712 5712 5713 5714 5714 5714 5713 5713 5713 5713 5712 5712 5712 5713 5713 5712 5712 5712 5711 5711 5710 5710 5709 5708 5708 5707 5707 5706 5705 5705 5704 5705 5704 5703 5702 5701